Showing default

GALILEO 16 (26C), 41860

Orbit data source: Space-Track

GALILEO 16 (26C), 41860 is a payload satellite owned by GNSS Agency (ESA) that was launched on Thu, 17 Nov 2016 UTC via an ARIANE 5ES launch vehicle from the French Guiana (FRGUI). Payload-class satellites include a variety of spacecraft equipped with specific instruments for various scientific and technological missions. These include communications satellites like Starlink; space stations such as the ISS; scientific satellites like the Hubble; Earth observation satellites from companies like Planet Labs, Umbra, and HawkEye 360; GPS; miniature CubeSats for education and research; and military/defense satellites.

Loading next visibility...
Identifier
41860, 2016-069B
Orbit
Active
Country
Flag of ESAESA
Related business
Manufacturer
OHB
Mission
Operational Civil Navigation
Bus & Motor
GALILEOSAT, AOCS
Mass
738 kg wet, 700 kg dry
Launch date (UTC)
2016-11-17 (9 years ago)
Launch vehicle
ARIANE 5ES
Launch site
French Guiana (FRGUI)
Object type
Payload
Rocket body
Debris
Shape & HBR
Box + 2 Pan, 7.3 m
Radar Cross Section
9.223 m², Large (>1 m²)

Expand to show TLE details & history
Last TLE update: 2 days ago

TLE from 2 days ago
0 GALILEO 16 (26C)
1 41860U 16069B   26125.36472333  .00000031  00000-0  00000-0 0  9992
2 41860  55.4699 102.2652 0004713 343.2381  16.7109  1.70474234 58926
Epoch: 2026-05-05T08:45Z
TLE epoch observation values (Epoch: 2026-05-05T08:45:12.095Z)
Latitude
0.00002°
Longitude
107.70168°
Altitude
23,209.062 km
Speed
3.671 km/s
True Right ascension
06h 48m 58s
True Declination
0° 00' 00"
Sunlit
Object was in daylight at epoch
Visualization orbit readout
Latitude
Unknown
Longitude
Unknown
Altitude
Unknown
Speed
Unknown
Apparent Right ascension
Unknown
Apparent Declination
Unknown
Sunlit
N/A
Visualization observer readout
Local Sidereal Time
20:00:02
Azimuth
Unknown
Elevation
Unknown
Doppler factor
Unknown
Orbital elements
Apogee altitude
23,236.098 km
Perigee altitude
23,208.197 km
Semi-major axis
29,600.284 km
Eccentricity
0.00047
Inclination
55.4699°
RAAN
102.2652°
Arg. of periapsis
343.2381°
True anomaly
16.72644°
Mean anomaly
16.7109°
Eccentric anomaly
16.71867°
Mean motion
0.42619 °/min
Orbital period
844.7 mins
BSTAR
0
Loading maneuver chart data...
Computing Atmospheric mass density...
Loading historical data...
Loading historical data...
Loading historical data...
Loading historical data...
Loading historical data...
Loading historical data...
Loading historical data...
Other satellites on launch #69 in the year 2016 (2016-11-17 UTC)

Documentation

Showing up to 5 results
|